HG8GL Weather Reports


Display with metric or nautical units.
time (UTC)temp
F
wind
direction
speed
MPH
gust
MPH
rain 1hr
in
rain 24hr
in
rain mn
in
humidity
%
barometer
mb
20190324172521 64 270 0.0 0.0 0.00 0.00 0.00 41 1014.4
20190324172042 65 270 0.0 0.0 0.00 0.00 0.00 41 1015.4
20190324171515 65 270 0.0 0.0 0.00 0.00 0.00 41 1015.4
20190324171043 66 270 0.0 0.0 0.00 0.00 0.00 44 1015.4
20190324170016 67 270 0.0 0.0 0.00 0.00 0.00 44 1015.4
20190324165514 67 270 0.0 0.0 0.00 0.00 0.00 44 1015.4
20190324165042 68 270 0.0 0.0 0.00 0.00 0.00 44 1015.4
20190324164514 68 259 0.0 3.0 0.00 0.00 0.00 44 1015.4
20190324162535 69 248 2.0 5.0 0.00 0.00 0.00 44 1015.4
20190324162044 70 256 0.0 1.0 0.00 0.00 0.00 43 1015.4
20190324161513 70 267 2.0 5.0 0.00 0.00 0.00 43 1015.4
20190324161044 70 217 1.0 6.0 0.00 0.00 0.00 43 1015.4
20190324160018 71 269 1.0 3.0 0.00 0.00 0.00 43 1015.4
20190324155515 72 194 2.0 5.0 0.00 0.00 0.00 43 1015.4
20190324155108 72 291 2.0 3.0 0.00 0.00 0.00 43 1015.4
20190324154522 72 303 1.0 6.0 0.00 0.00 0.00 43 1015.4
20190324152523 73 252 2.0 7.0 0.00 0.00 0.00 43 1016.4
20190324152044 73 208 2.0 6.0 0.00 0.00 0.00 43 1016.4
20190324151514 73 202 1.0 5.0 0.00 0.00 0.00 43 1016.4
20190324151040 73 202 2.0 6.0 0.00 0.00 0.00 43 1016.4
20190324150016 73 306 2.0 3.0 0.00 0.00 0.00 43 1016.4
20190324145514 73 277 5.0 8.0 0.00 0.00 0.00 43 1016.4
20190324145045 73 264 4.0 9.0 0.00 0.00 0.00 43 1016.4
20190324144514 73 261 4.0 6.0 0.00 0.00 0.00 43 1016.4
20190324142525 73 282 2.0 6.0 0.00 0.00 0.00 41 1015.4
20190324142042 73 202 1.0 9.0 0.00 0.00 0.00 43 1016.4
20190324141515 73 168 5.0 6.0 0.00 0.00 0.00 43 1016.4
20190324141045 73 237 3.0 9.0 0.00 0.00 0.00 43 1016.4
20190324140015 73 295 7.0 9.0 0.00 0.00 0.00 41 1016.4
20190324135513 74 211 4.0 7.0 0.00 0.00 0.00 41 1016.4
20190324135053 74 290 0.0 1.0 0.00 0.00 0.00 41 1016.4
20190324134519 74 292 2.0 6.0 0.00 0.00 0.00 41 1016.4
20190324133552 74 286 0.0 2.0 0.00 0.00 0.00 41 1017.4
20190324132526 74 335 0.0 6.0 0.00 0.00 0.00 41 1017.4
20190324132046 74 329 5.0 8.0 0.00 0.00 0.00 41 1018.4
20190324131515 73 307 0.0 7.0 0.00 0.00 0.00 41 1018.4
20190324131046 73 248 3.0 8.0 0.00 0.00 0.00 41 1018.4
20190324130017 73 201 1.0 7.0 0.00 0.00 0.00 42 1018.4
20190324125518 73 19 3.0 8.0 0.00 0.00 0.00 43 1018.4
20190324125051 73 286 6.0 9.0 0.00 0.00 0.00 43 1018.4
20190324124514 73 270 3.0 6.0 0.00 0.00 0.00 43 1018.4
20190324124404 73 310 5.0 10.0 0.00 0.00 0.00 43 1018.4
20190324122525 73 267 3.0 9.0 0.00 0.00 0.00 43 1018.4
20190324122054 73 223 0.0 3.0 0.00 0.00 0.00 43 1018.4
20190324121517 73 238 0.0 5.0 0.00 0.00 0.00 43 1018.4
20190324121047 72 291 2.0 8.0 0.00 0.00 0.00 43 1018.4
20190324120018 72 315 2.0 7.0 0.00 0.00 0.00 43 1018.4
20190324115514 72 308 1.0 7.0 0.00 0.00 0.00 43 1018.4
20190324115048 72 274 5.0 7.0 0.00 0.00 0.00 43 1018.4
20190324114514 72 217 5.0 8.0 0.00 0.00 0.00 43 1018.4
20190324114233 72 264 1.0 6.0 0.00 0.00 0.00 43 1019.4
20190324112521 72 210 4.0 8.0 0.00 0.00 0.00 43 1019.4
20190324112045 72 267 5.0 8.0 0.00 0.00 0.00 43 1020.4
20190324111515 71 304 1.0 6.0 0.00 0.00 0.00 43 1020.4
20190324111040 71 118 1.0 7.0 0.00 0.00 0.00 43 1020.4
20190324110016 71 305 2.0 8.0 0.00 0.00 0.00 43 1020.4
20190324105518 71 232 3.0 7.0 0.00 0.00 0.00 43 1020.4
20190324105040 71 251 3.0 6.0 0.00 0.00 0.00 43 1020.4
20190324104513 71 273 2.0 5.0 0.00 0.00 0.00 43 1020.4
20190324104043 71 226 3.0 7.0 0.00 0.00 0.00 43 1020.4
20190324103517 71 260 5.0 6.0 0.00 0.00 0.00 43 1019.4
20190324103146 70 301 3.0 7.0 0.00 0.00 0.00 43 1019.4
20190324102523 70 284 4.0 7.0 0.00 0.00 0.00 40 1019.4
20190324102042 70 1 5.0 6.0 0.00 0.00 0.00 39 1020.4
20190324101513 70 345 4.0 8.0 0.00 0.00 0.00 39 1020.4
20190324101052 69 341 4.0 8.0 0.00 0.00 0.00 39 1020.4
20190324100124 69 342 1.0 6.0 0.00 0.00 0.00 39 1020.4
20190324095518 69 308 5.0 9.0 0.00 0.00 0.00 39 1020.4
20190324095101 69 272 3.0 8.0 0.00 0.00 0.00 39 1020.4
20190324094517 69 266 5.0 9.0 0.00 0.00 0.00 39 1020.4
20190324092526 67 291 2.0 6.0 0.00 0.00 0.00 39 1020.4
20190324092051 67 275 1.0 9.0 0.00 0.00 0.00 39 1021.4
20190324091519 67 337 5.0 8.0 0.00 0.00 0.00 39 1021.4
20190324091053 67 285 3.0 6.0 0.00 0.00 0.00 39 1021.4
20190324090018 66 250 3.0 7.0 0.00 0.00 0.00 39 1021.4
20190324085518 66 29 1.0 3.0 0.00 0.00 0.00 41 1021.4
20190324085055 65 275 2.0 7.0 0.00 0.00 0.00 41 1021.4
20190324084519 65 298 2.0 7.0 0.00 0.00 0.00 41 1021.4
20190324082525 63 270 3.0 6.0 0.00 0.00 0.00 41 1021.4
20190324082050 63 270 0.0 5.0 0.00 0.00 0.00 41 1021.4
20190324081517 62 274 1.0 5.0 0.00 0.00 0.00 43 1021.4
20190324081049 61 221 1.0 3.0 0.00 0.00 0.00 43 1021.4
20190324080016 60 242 1.0 5.0 0.00 0.00 0.00 43 1022.4
20190324075515 60 231 1.0 5.0 0.00 0.00 0.00 43 1022.4
20190324075048 59 281 1.0 6.0 0.00 0.00 0.00 43 1022.4
20190324074520 59 255 3.0 6.0 0.00 0.00 0.00 45 1022.4
20190324074303 56 289 5.0 7.0 0.00 0.00 0.00 48 1022.4
20190324072531 56 288 2.0 7.0 0.00 0.00 0.00 48 1022.4
20190324072057 55 280 5.0 7.0 0.00 0.00 0.00 49 1022.4
20190324071517 54 292 4.0 7.0 0.00 0.00 0.00 51 1022.4
20190324071045 53 288 2.0 6.0 0.00 0.00 0.00 55 1022.4
20190324070022 52 292 2.0 5.0 0.00 0.00 0.00 63 1022.4
20190324065525 51 284 2.0 7.0 0.00 0.00 0.00 68 1022.4
20190324065052 50 282 1.0 7.0 0.00 0.00 0.00 68 1022.4
20190324064513 50 270 2.0 6.0 0.00 0.00 0.00 68 1022.4
20190324064045 50 304 2.0 5.0 0.00 0.00 0.00 69 1022.4
20190324063517 49 304 2.0 7.0 0.00 0.00 0.00 70 1022.4
20190324063055 48 286 3.0 7.0 0.00 0.00 0.00 72 1022.4
20190324062525 48 274 1.0 5.0 0.00 0.00 0.00 74 1022.4
20190324062045 47 287 0.0 6.0 0.00 0.00 0.00 75 1022.4
20190324061517 47 273 1.0 6.0 0.00 0.00 0.00 76 1022.4
20190324061043 46 271 2.0 5.0 0.00 0.00 0.00 76 1022.4
20190324060021 45 273 1.0 5.0 0.00 0.00 0.00 78 1022.4
20190324055521 45 268 1.0 6.0 0.00 0.00 0.00 78 1022.4
20190324055043 45 267 1.0 3.0 0.00 0.00 0.00 77 1022.4
20190324054520 44 285 0.0 3.0 0.00 0.00 0.00 77 1022.4
20190324054246 44 261 0.0 3.0 0.00 0.00 0.00 76 1022.4
20190324053549 44 261 0.0 1.0 0.00 0.00 0.00 75 1022.4
20190324052516 43 264 0.0 2.0 0.00 0.00 0.00 75 1022.4
20190324052039 43 265 0.0 2.0 0.00 0.00 0.00 75 1022.4
20190324051515 43 265 0.0 2.0 0.00 0.00 0.00 74 1022.4
20190324051044 43 270 0.0 2.0 0.00 0.00 0.00 74 1022.4
20190324050013 43 273 0.0 2.0 0.00 0.00 0.00 74 1022.4
20190324045512 43 264 0.0 2.0 0.00 0.00 0.00 75 1022.4
20190324045055 43 266 1.0 3.0 0.00 0.00 0.00 75 1022.4
20190324044516 43 270 0.0 0.0 0.00 0.00 0.00 75 1022.4
20190324044043 43 280 1.0 3.0 0.00 0.00 0.00 74 1022.4
20190324043513 43 270 0.0 0.0 0.00 0.00 0.00 74 1022.4
20190324043302 43 270 0.0 0.0 0.00 0.00 0.00 74 1022.4
20190324042522 43 273 1.0 3.0 0.00 0.00 0.00 74 1022.4
20190324042041 43 270 1.0 2.0 0.00 0.00 0.00 74 1022.4
20190324041511 43 270 0.0 2.0 0.00 0.00 0.00 72 1022.4
20190324041043 43 270 0.0 2.0 0.00 0.00 0.00 72 1022.4
20190324040027 43 270 0.0 1.0 0.00 0.00 0.00 71 1022.4
20190324035521 43 265 0.0 0.0 0.00 0.00 0.00 71 1022.4
20190324035103 43 270 0.0 0.0 0.00 0.00 0.00 71 1021.4
20190324034520 43 270 0.0 0.0 0.00 0.00 0.00 71 1021.4
20190324032520 44 270 0.0 0.0 0.00 0.00 0.00 71 1022.4
20190324032044 44 270 0.0 0.0 0.00 0.00 0.00 71 1022.4
20190324031512 44 270 0.0 1.0 0.00 0.00 0.00 71 1022.4
20190324031050 44 270 0.0 2.0 0.00 0.00 0.00 71 1022.4
20190324030022 44 256 0.0 3.0 0.00 0.00 0.00 71 1022.4
20190324025513 44 267 0.0 1.0 0.00 0.00 0.00 71 1022.4
20190324025042 44 270 1.0 3.0 0.00 0.00 0.00 71 1022.4
20190324024516 44 270 2.0 3.0 0.00 0.00 0.00 71 1022.4
20190324024048 44 270 0.0 1.0 0.00 0.00 0.00 71 1022.4
20190324023542 44 282 0.0 0.0 0.00 0.00 0.00 71 1022.4
20190324022524 44 292 0.0 0.0 0.00 0.00 0.00 71 1022.4
20190324022047 44 289 0.0 2.0 0.00 0.00 0.00 71 1021.4
20190324021513 43 280 2.0 5.0 0.00 0.00 0.00 70 1021.4
20190324021048 43 292 0.0 2.0 0.00 0.00 0.00 70 1021.4
20190324020014 43 270 0.0 0.0 0.00 0.00 0.00 70 1022.4
20190324015512 43 270 0.0 0.0 0.00 0.00 0.00 70 1022.4
20190324015042 43 270 0.0 1.0 0.00 0.00 0.00 70 1022.4
20190324014514 43 270 1.0 3.0 0.00 0.00 0.00 66 1022.4
20190324014303 43 270 0.0 1.0 0.00 0.00 0.00 66 1022.4
20190324013552 43 270 0.0 1.0 0.00 0.00 0.00 66 1022.4
20190324012519 44 270 0.0 1.0 0.00 0.00 0.00 64 1022.4
20190324012049 44 270 0.0 1.0 0.00 0.00 0.00 66 1022.4
20190324011514 44 270 0.0 0.0 0.00 0.00 0.00 64 1022.4
20190324011046 44 270 0.0 0.0 0.00 0.00 0.00 64 1022.4
20190324010014 44 270 0.0 0.0 0.00 0.00 0.00 64 1022.4
20190324005513 45 270 0.0 1.0 0.00 0.00 0.00 61 1022.4
20190324005053 45 270 0.0 1.0 0.00 0.00 0.00 60 1022.4
20190324004515 45 270 0.0 0.0 0.00 0.00 0.00 58 1022.4
20190324002525 45 270 0.0 1.0 0.00 0.00 0.00 60 1022.4
20190324002044 45 270 0.0 0.0 0.00 0.00 0.00 60 1022.4
20190324001514 45 270 0.0 0.0 0.00 0.00 0.00 55 1022.4
20190324000020 45 271 0.0 0.0 0.00 0.00 0.00 55 1022.4
20190323235513 45 270 0.0 1.0 0.00 0.00 0.00 55 1022.4
20190323235055 45 270 0.0 0.0 0.00 0.00 0.00 55 1022.4
20190323234514 45 270 0.0 2.0 0.00 0.00 0.00 54 1022.4
20190323233550 46 265 0.0 2.0 0.00 0.00 0.00 52 1023.4
20190323232519 46 270 0.0 1.0 0.00 0.00 0.00 52 1023.4
20190323232044 46 270 0.0 1.0 0.00 0.00 0.00 52 1022.4
20190323231513 46 292 0.0 0.0 0.00 0.00 0.00 52 1022.4
20190323231039 46 292 0.0 0.0 0.00 0.00 0.00 52 1022.4
20190323230015 46 292 0.0 0.0 0.00 0.00 0.00 52 1022.4
20190323225511 46 292 0.0 0.0 0.00 0.00 0.00 52 1022.4
20190323225044 46 292 0.0 0.0 0.00 0.00 0.00 52 1023.4
20190323224516 46 292 0.0 0.0 0.00 0.00 0.00 51 1023.4
20190323224241 47 292 0.0 0.0 0.00 0.00 0.00 51 1023.4
20190323222516 47 292 0.0 0.0 0.00 0.00 0.00 51 1023.4
20190323222043 47 292 0.0 0.0 0.00 0.00 0.00 51 1023.4
20190323221516 47 292 0.0 0.0 0.00 0.00 0.00 51 1023.4
20190323221037 47 292 0.0 0.0 0.00 0.00 0.00 48 1023.4
20190323220012 47 292 0.0 0.0 0.00 0.00 0.00 48 1023.4
20190323215511 47 292 0.0 0.0 0.00 0.00 0.00 48 1023.4
20190323215312 47 292 0.0 0.0 0.00 0.00 0.00 48 1023.4
20190323214518 47 292 0.0 1.0 0.00 0.00 0.00 48 1023.4
20190323214126 48 292 0.0 0.0 0.00 0.00 0.00 48 1023.4
20190323212527 48 292 0.0 0.0 0.00 0.00 0.00 48 1023.4
20190323212039 48 292 0.0 0.0 0.00 0.00 0.00 48 1023.4
20190323211515 48 292 0.0 0.0 0.00 0.00 0.00 48 1023.4
20190323211046 48 292 0.0 0.0 0.00 0.00 0.00 48 1023.4
20190323210014 48 292 0.0 0.0 0.00 0.00 0.00 46 1023.4
20190323205511 48 292 0.0 0.0 0.00 0.00 0.00 46 1023.4
20190323205037 48 292 0.0 0.0 0.00 0.00 0.00 46 1023.4
20190323204512 49 292 0.0 0.0 0.00 0.00 0.00 46 1023.4
20190323204148 49 292 0.0 0.0 0.00 0.00 0.00 46 1023.4
20190323202521 49 292 0.0 0.0 0.00 0.00 0.00 46 1023.4
20190323202050 49 292 0.0 0.0 0.00 0.00 0.00 46 1023.4
20190323201511 50 292 0.0 0.0 0.00 0.00 0.00 46 1023.4
20190323201045 50 292 0.0 0.0 0.00 0.00 0.00 46 1023.4
20190323200014 50 292 0.0 0.0 0.00 0.00 0.00 46 1023.4
20190323195511 50 292 0.0 0.0 0.00 0.00 0.00 46 1023.4
20190323195046 51 292 0.0 0.0 0.00 0.00 0.00 46 1023.4
20190323194811 51 292 0.0 0.0 0.00 0.00 0.00 46 1023.4
20190323194513 51 292 0.0 0.0 0.00 0.00 0.00 46 1023.4
20190323193549 51 292 0.0 0.0 0.00 0.00 0.00 46 1023.4
20190323192525 52 292 0.0 0.0 0.00 0.00 0.00 46 1023.4
20190323192041 52 292 0.0 0.0 0.00 0.00 0.00 46 1023.4
20190323191512 52 292 0.0 0.0 0.00 0.00 0.00 46 1023.4
20190323191051 53 292 0.0 0.0 0.00 0.00 0.00 46 1023.4
20190323190017 53 292 0.0 0.0 0.00 0.00 0.00 46 1023.4
20190323185511 53 292 0.0 0.0 0.00 0.00 0.00 46 1023.4
20190323185045 53 292 0.0 0.0 0.00 0.00 0.00 46 1023.4
20190323184515 53 292 0.0 3.0 0.00 0.00 0.00 46 1023.4
20190323182524 54 112 0.0 0.0 0.00 0.00 0.00 44 1023.4
20190323182042 54 158 0.0 0.0 0.00 0.00 0.00 44 1023.4
20190323181518 55 158 0.0 0.0 0.00 0.00 0.00 44 1023.4
20190323181040 55 158 0.0 0.0 0.00 0.00 0.00 44 1023.4
20190323180016 56 158 0.0 0.0 0.00 0.00 0.00 44 1023.4
20190323175510 57 158 0.0 0.0 0.00 0.00 0.00 44 1023.4
20190323175037 57 158 0.0 0.0 0.00 0.00 0.00 44 1022.4
20190323174515 57 158 0.0 0.0 0.00 0.00 0.00 43 1022.4